LTARLTAU

Guest
Details From LTAR - SIVAS
To LTAU - ERKILET
Flight Number -
Tags generated
Created
Modified
Stats Distance 91 nm / 168 km
Max Altitude 14,500 ft / 4,420 m
Waypoints 4
Social Downloads 0
Likes 0
Share VATSIM

Download

Looking for another format? Having issues loading an existing format? Contact us
Advertisement - Login to hide

Notes

Basic altitude profile: - Ascent Rate: 2500ft/min - Ascent Speed: 250kts - Cruise Altitude: 35000ft - Cruise Speed: 420kts - Descent Rate: 1500ft/min - Descent Speed: 250kts Options: - Use NATs: yes - Use PACOTS: yes - Use low airways: yes - Use high airways: yes

Route

LTAR GEM A285 TIRMA LTAU

ID Type Via Altitude Latitude Longitude Leg Dist Tot Dist Heading (true) Name
O LTAR APT - 0 ft / 0 m 39.81383˚ 36.90350˚ - 0 nm - SIVAS
GEM VOR - 7,200 ft / 2,195 m 39.15528˚ 36.02917˚ 56 nm 56 nm 226° / 225° GEMEREK VOR-DME
TIRMA FIX A285 (AWY-LO) 14,500 ft / 4,420 m 38.94222˚ 35.76500˚ 17 nm 74 nm 224° / 224° -
O LTAU APT - 0 ft / 0 m 38.77038˚ 35.49543˚ 16 nm 90 nm 231° / 231° ERKILET

Altitude Profile

Advertisement - Login to hide

LTAR

Details ICAO LTAR (VAS)
Name SIVAS
Region Turkey
Timezone Europe/Istanbul (UTC+3.0)
Stats Elevation 5,236 ft / 1,596 m (AMSL)
Location 39.813834° 36.903500°
Runways 1
Magnetic Variation 5.968° E

METAR

LTAR 242150Z 11003KT CAVOK 10/09 Q1019 RMK RWY19 00000KT

Decode

TAF

Not found

Departure Runways

ID Width Length Bearing (true) Bearing (mag) Surface Threshold Offset Overrun Length
01 98 ft / 30 m 12,521 ft / 3,816 m 17.81° 11.84° Concrete 0 ft / 0 m 690 ft / 210 m
19 98 ft / 30 m 12,521 ft / 3,816 m 197.82° 191.85° Concrete 0 ft / 0 m 0 ft / 0 m

LTAU

Details ICAO LTAU (ASR)
Name ERKILET
Region Turkey
Timezone Europe/Istanbul (UTC+3.0)
Stats Elevation 3,463 ft / 1,056 m (AMSL)
Location 38.770384° 35.495427°
Runways 1
Magnetic Variation 5.701° E

METAR

LTAU 242150Z 08005KT CAVOK 18/12 Q1015 NOSIG RMK RWY07 08009KT

Decode

TAF

TAF LTAU 241040Z 2412/2512 02008KT 9999 SCT040 TEMPO 2412/2416 -SHRA FEW030CB BKN035 BECMG 2419/2422 CAVOK BECMG 2506/2509 SCT040

Decode

Destination Runways

ID Width Length Bearing (true) Bearing (mag) Surface Threshold Offset Overrun Length
07 145 ft / 44 m 9,822 ft / 2,994 m 76.29° 70.59° Concrete 0 ft / 0 m 500 ft / 152 m
25 145 ft / 44 m 9,822 ft / 2,994 m 256.31° 250.61° Concrete 0 ft / 0 m 500 ft / 152 m

Approach Navaids

Runway Type Ident Frequency Range Bearing (true) Bearing (mag) Slope Elevation
25 Localiser IKSR 110.30 MHz 18 nm / 33 km 256.40° 250.70° - 3,453 ft / 1,052 m (AMSL)
25 Glidescope IKSR 110.30 MHz 10 nm / 19 km 256.30° 250.60° 3.00° 3,463 ft / 1,056 m (AMSL)

Popular Alternatives